Satellite-Ground Cal/Val Region Overpasses Predictions

Prediction of Satellite NPP Overpassing Cal/Val Region: PacNW

Region Location: (Latitude: 10.00, Longitude: 139.50) to (Latitude: 22.70, Longitude: 165.60).

Table of predicted overpasses for the next 14.0 days since TLE Epoch: 10/11/2022
Interval Starting Time Starting Location Ending Time Ending Location
1 10/11/2022 15:50:20 ( 22.65, 147.48) 10/11/2022 15:53:55 ( 10.03, 144.48)
2 10/12/2022 02:59:25 ( 10.04, 155.00) 10/12/2022 03:03:00 ( 22.66, 152.00)
3 10/12/2022 15:31:18 ( 22.68, 152.25) 10/12/2022 15:34:53 ( 10.06, 149.24)
4 10/13/2022 02:40:23 ( 10.01, 159.77) 10/13/2022 02:43:59 ( 22.69, 156.75)
5 10/13/2022 15:12:16 ( 22.65, 157.00) 10/13/2022 15:15:51 ( 10.03, 154.00)
6 10/14/2022 02:21:21 ( 10.04, 164.52) 10/14/2022 02:24:56 ( 22.66, 161.52)
7 10/14/2022 14:53:14 ( 22.67, 161.77) 10/14/2022 14:56:49 ( 10.05, 158.76)
8 10/15/2022 03:43:49 ( 10.02, 143.91) 10/15/2022 03:47:24 ( 22.64, 140.91)
9 10/15/2022 14:35:17 ( 18.89, 165.59) 10/15/2022 14:37:48 ( 10.02, 163.51)
10 10/15/2022 16:15:41 ( 22.69, 141.16) 10/15/2022 16:17:37 ( 15.89, 139.50)
11 10/16/2022 03:24:47 ( 10.05, 148.66) 10/16/2022 03:28:22 ( 22.68, 145.66)
12 10/16/2022 15:56:40 ( 22.66, 145.91) 10/16/2022 16:00:15 ( 10.04, 142.90)
13 10/17/2022 03:05:45 ( 10.03, 153.43) 10/17/2022 03:09:20 ( 22.65, 150.42)
14 10/17/2022 15:37:38 ( 22.68, 150.67) 10/17/2022 15:41:14 ( 10.00, 147.66)
15 10/18/2022 02:46:42 ( 10.01, 158.19) 10/18/2022 02:50:18 ( 22.69, 155.18)
16 10/18/2022 15:18:36 ( 22.65, 155.43) 10/18/2022 15:22:11 ( 10.03, 152.42)
17 10/19/2022 02:27:41 ( 10.05, 162.95) 10/19/2022 02:31:16 ( 22.67, 159.94)
18 10/19/2022 14:59:34 ( 22.67, 160.19) 10/19/2022 15:03:09 ( 10.05, 157.19)
19 10/20/2022 02:11:12 ( 19.07, 165.59) 10/20/2022 02:12:13 ( 22.65, 164.70)
20 10/20/2022 03:50:08 ( 10.03, 142.33) 10/20/2022 03:53:31 ( 21.95, 139.50)
21 10/20/2022 14:40:31 ( 22.68, 164.95) 10/20/2022 14:44:07 ( 10.01, 161.94)
22 10/20/2022 16:22:01 ( 22.68, 139.58) 10/20/2022 16:22:06 ( 22.38, 139.51)
23 10/21/2022 03:31:06 ( 10.02, 147.10) 10/21/2022 03:34:42 ( 22.70, 144.08)
24 10/21/2022 16:02:59 ( 22.70, 144.34) 10/21/2022 16:06:35 ( 10.02, 141.32)
25 10/22/2022 03:12:03 ( 10.00, 151.86) 10/22/2022 03:15:39 ( 22.68, 148.84)
26 10/22/2022 15:43:57 ( 22.65, 149.09) 10/22/2022 15:47:32 ( 10.03, 146.09)
27 10/23/2022 02:53:02 ( 10.04, 156.61) 10/23/2022 02:56:37 ( 22.67, 153.61)
28 10/23/2022 15:24:55 ( 22.67, 153.86) 10/23/2022 15:28:30 ( 10.05, 150.85)
29 10/24/2022 02:34:00 ( 10.03, 161.38) 10/24/2022 02:37:35 ( 22.65, 158.37)
30 10/24/2022 15:05:52 ( 22.68, 158.62) 10/24/2022 15:09:28 ( 10.01, 155.60)
